Regional Weather Roundup
Issued by NWS

Home | Current Version | Previous Version | Graphics & Text | Print | Product List | Glossary On
Versions: 1 2 3 4 5 6 7 8 9 10 11 12 13 14 15 16 17 18 19 20 21 22 23 24 25 26 27 28 29 30 31 32 33 34 35 36 37 38 39 40 41 42 43 44 45 46 47 48 49 50
000
ASUS43 KBIS 220110
RWRND

NORTH DAKOTA REGIONAL WEATHER ROUNDUP
NATIONAL WEATHER SERVICE BISMARCK ND
800 PM CDT MON AUG 21 2017

NOTE: "FAIR" INDICATES FEW OR NO CLOUDS BELOW 12,000 FEET WITH NO
SIGNIFICANT WEATHER AND/OR OBSTRUCTIONS TO VISIBILITY.


NDZ001>003-009>011-017-220200-
NORTHWEST NORTH DAKOTA

CITY           SKY/WX    TMP DP  RH WIND       PRES   REMARKS
WILLISTON      CLEAR     73  33  23 N12G20    30.11R
MINOT          CLEAR     70  39  32 NW10      30.04S
MINOT AFB        N/A     70  37  30 N9        30.03S
$$

NDZ018>021-031>035-040>046-220200-
SOUTHWEST NORTH DAKOTA

CITY           SKY/WX    TMP DP  RH WIND       PRES   REMARKS
BISMARCK       CLEAR     72  40  31 NW10      30.05S
DICKINSON      CLEAR     70  35  27 N14       30.11R
GARRISON         N/A     68  38  33 NW14G24   30.06R
HETTINGER ARPT CLEAR     70  41  34 N10       30.13R
$$

NDZ004>008-012>016-024-026-027-054-220200-
NORTHEAST NORTH DAKOTA

CITY           SKY/WX    TMP DP  RH WIND       PRES   REMARKS
GRAND FORKS    PTCLDY    69  55  60 N25G35    29.90R
GRND FRKS AFB  PTCLDY    68  53  58 N20G26    29.93R
DEVILS LAKE    CLEAR     66  50  56 NW9       29.99R
$$

NDZ022-023-025-028>030-036>039-047>053-220200-
SOUTHEAST NORTH DAKOTA

CITY           SKY/WX    TMP DP  RH WIND       PRES   REMARKS
FARGO          CLEAR     70  58  65 NW9       29.89S
JAMESTOWN      CLEAR     68  48  48 NW14      29.98R
$$




USA.gov is the U.S. government's official web portal to all federal, state and local government web resources and services.